Volver al catálogo

YUNHAI 2-2C

ActivoCienciaLEO
NORAD 59282·PAYLOAD·🇨🇳 China

Lanzado Mar 21, 2024 desde Jiuquan Satellite Launch Center

Loading…

Próximos Pases (próximas 24 horas)

TLE

ActualizadoSource: Space-Track

Época: Sep 14, 2026, 23:33 UTC

1 59282U 24052C   26257.98191407 -.00000080  00000-0  32402-4 0  9994
2 59282  50.0091 121.9004 0006549 115.7027 244.4565 14.27989572127630

Sigue YUNHAI 2-2C en tiempo real con AllMySat

Download on the App Store